Theta_e
354 348 349 353 353 350 348 349 352 350 354 354 353 353 356 351 351 355 353 354 355 346
348 346 349 346 349 348 355 348 345 350 349 353 353 353 355 348 352 355 355 357 355 350
321 348 344 345 345 348 354 352 352 350 350 350 351 351 354 350 353 353 352 350 355 354
317 323 345 335 336 344 353 352 350 350 350 349 350 352 354 353 349 348 352 354 350 352
317 320 330 337 330 339 349 351 350 351 350 349 347 349 350 346 344 345 347 350 350 348
318 317 319 333 343 346 349 350 350 350 350 349 349 349 350 349 347 348 349 349 350 350
317 317 320 329 338 348 349 350 350 351 351 350 351 351 351 350 350 351 350 353 352 349
320 320 321 325 340 349 348 350 351 350 351 352 352 350 352 352 352 353 350 351 350 351
318 320 321 325 332 343 349 350 349 351 351 352 350 324 322 344 355 352 349 346 347 347
315 318 321 325 330 333 346 350 350 351 352 352 354 313 315 319 353 349 348 348 346 341
313 317 320 323 329 334 338 347 350 351 352 353 353 311 310 314 352 349 347 344 342 332
310 317 320 322 327 329 336 341 346 350 351 351 352 307 308 318 349 344 342 337 329 330
313 316 316 319 321 326 332 336 340 342 346 337 351 303 304 319 345 336 327 325 323 312
313 314 319 322 324 327 330 332 335 336 341 344 342 335 302 309 339 327 323 323 320 319
Wind_Speed
21 13 13 15 11 14 14 14 15 15 16 17 17 15 13 12 12 13 12 14 12 10
16 19 17 13 13 11 12 13 15 19 17 16 15 16 13 12 13 12 13 12 13 11
14 15 13 12 14 16 15 16 18 20 19 17 17 17 16 13 13 14 12 12 14 13
12 12 14 16 9 10 14 17 18 17 17 19 19 17 15 15 15 17 15 15 15 16
10 12 12 12 18 29 17 17 15 16 18 18 17 16 15 14 13 16 17 17 16 17
7 11 11 11 23 15 19 15 15 15 16 16 17 18 17 16 16 17 17 17 18 17
9 6 11 13 11 13 12 14 15 17 16 16 16 16 16 17 17 16 17 16 16 18
13 7 8 10 11 12 14 14 16 16 15 15 15 13 17 17 17 17 17 15 16 17
12 10 9 7 6 7 13 13 14 17 17 16 13 15 16 16 16 15 16 16 15 15
13 11 9 9 6 4 9 11 13 15 17 17 17 15 18 15 15 15 16 17 13 13
13 11 9 9 8 7 5 8 12 13 15 16 15 16 17 17 16 13 16 13 12 14
11 11 9 8 6 5 5 6 9 11 12 12 13 13 15 15 17 10 12 8 14 16
10 11 9 6 7 6 5 5 4 7 10 15 15 13 16 17 11 10 8 10 11 17
10 10 10 7 8 8 8 4 5 7 8 11 15 12 15 21 11 11 11 10 10 10
Wind_Direction
211 211 212 220 212 205 204 192 177 181 192 182 198 202 196 196 207 200 209 204 231 217
218 210 207 207 198 220 211 181 176 182 187 177 194 202 193 210 194 205 205 201 208 231
314 245 214 225 224 208 191 198 173 183 179 178 185 196 198 201 200 205 202 215 201 213
328 318 238 206 218 258 200 196 174 174 181 186 185 190 197 204 195 201 204 208 202 206
331 325 315 202 185 237 210 195 175 174 182 184 183 182 194 198 198 200 209 209 211 207
329 324 323 292 201 199 217 184 184 184 183 181 183 187 194 196 203 203 209 209 208 208
320 313 293 304 295 193 200 193 189 194 183 184 184 188 192 199 205 205 210 210 210 211
308 307 293 295 288 224 211 194 191 191 192 189 187 190 194 198 203 203 207 207 208 211
293 299 288 267 257 294 204 202 194 193 193 193 198 180 186 196 198 197 201 202 204 203
289 295 300 305 298 274 255 189 202 201 199 199 203 172 182 193 196 191 204 206 197 189
287 285 301 304 294 314 265 228 207 206 210 208 207 166 180 187 204 199 208 208 182 155
262 278 283 277 299 336 280 236 209 226 211 211 216 162 179 173 205 195 211 165 160 166
267 279 266 285 299 325 320 274 220 213 216 214 215 157 165 182 203 185 159 152 158 164
251 255 281 306 308 322 313 262 228 222 223 223 217 192 176 183 179 165 156 158 160 163